Find Starlink 33777

NORAD ID: 63843 Int'l Des: 2025-093 Owner: SPXS Country: US Constellation: starlink operational
LEOCIRCULAR

現在のビュー

3D地球を読み込み中...

About Starlink 33777

Starlink 33777 (NORAD 63843) is a starlink constellation satellite (v2 mini) launched May 7, 2025 by SPXS of US. It operates in LEO, CIRCULAR orbit with a mass of 575.00 kg.

次回通過

Passes for default location (London). Set your location on the main map for personalized predictions.

高度履歴

Loading altitude history...

軌道要素

1 63843U 25093H 26229.13762513 .00010773 00000-0 40030-3 0 9990
2 63843 42.9989 251.5134 0001237 245.8893 114.1829 15.27591366 72516
Epoch: Aug 17, 2026 • Age: 26 hours

現在のステータス

高度 486.6 km
遠地点 / 近地点 N/A
速度 7.63 km/s
衛星直下点 42.22°N, 49.19°W
打ち上げ日 May 7, 2025
運用期間 1.2 years
タイプ internet

技術仕様

分類 Payload
質量 575.00 kg
乾燥質量 530.00 kg
総質量 575.00 kg
長さ 0.30 m
直径 4.10 m
スパン 29.00 m
形状 Box + pan
製造者 SPXS
バスタイプ Starlink V2MO
フェーズステータス In Orbit
所有者/国 SPXS/US

Most Searched